DELTA 1 DEB, 10660

Orbit data source: Space-Track

DELTA 1 DEB, 10660 is space debris in LEO originally from a launch on Thu, 29 Jul 1976 UTC launched from the Air Force Western Test Range (AFWTR). Debris objects in space refer to the collection of defunct objects orbiting the Earth. Examples of debris include non-operational satellites, rocket bodies, and fragments generated from explosions, collisions, or faulty payload assembly.

Loading next visibility...
Identifier
10660, 1976-077W
Orbit
LEO
Country
Flag of USUS
Related business
Manufacturer
Unknown
Mission
Spacecraft
Bus & Motor
Unknown
Mass
Unknown
Launch date (UTC)
1976-07-29 (49 years ago)
Launch vehicle
Unknown
Launch site
Air Force Western Test Range (AFWTR)
Object type
Payload
Rocket body
Debris
Shape & HBR
Unknown shape, 0.2 m
Radar Cross Section
Medium (>0.1 m² and <1 m²)

Expand to show TLE details & history
Last TLE update: 19 hours ago

TLE from 19 hours ago
0 DELTA 1 DEB
1 10660U 76077W   25292.21033801  .00000035  00000-0  10637-2 0  9995
2 10660 102.2680 201.0626 0395398  55.4475  97.0447 11.67398666 95961
Epoch: 2025-10-19T05:02Z
TLE epoch observation values (Epoch: 2025-10-19T05:02:53.204Z)
Latitude
22.50366°
Longitude
-77.44498°
Altitude
1,884.876 km
Speed
6.926 km/s
True Right ascension
01h 44m 49s
True Declination
22° 23' 56"
Sunlit
Object was in full shadow at epoch
Visualization orbit readout
Latitude
Unknown
Longitude
Unknown
Altitude
Unknown
Speed
Unknown
Apparent Right ascension
Unknown
Apparent Declination
Unknown
Sunlit
N/A
Visualization observer readout
Local Sidereal Time
18:28:15
Azimuth
Unknown
Elevation
Unknown
Doppler factor
Unknown
Orbital elements
Apogee altitude
2,152.356 km
Perigee altitude
1,503.426 km
Semi-major axis
8,206.028 km
Eccentricity
0.03954
Inclination
102.268°
RAAN
201.0626°
Arg. of periapsis
55.4475°
True anomaly
101.5098°
Mean anomaly
97.0447°
Eccentric anomaly
99.28051°
Mean motion
2.91974 °/min
Orbital period
123.3 mins
BSTAR
0.0010637
Loading maneuver chart data...
Computing Atmospheric mass density...
Loading historical data...
Loading historical data...
Loading historical data...
Loading historical data...
Loading historical data...
Loading historical data...
Loading historical data...

Documentation

Showing up to 5 results
|